[[{"header":{"parameterUnit":"m.s-1","parameterCategory":1,"la1":30.2991,"la2":30.254,"lo1":-89.0895,"lo2":-89.0444,"dy":0.0017,"dx":0.0017,"nx":28,"ny":28,"refTime":"2024-05-11T09:00:00:Z","depth":0,"parameterNumber":2,"parameterNumberName":"U-component_of_WINDS"},"data":[0,0,0,0,0,0,0,0,0,0,0,0,0,0,0,0,0,0,0,0,0,0,0,0,0,0,0,0,0,0,0,0,0,0,0,0,0,0,0,0,0,0,0,0,0,0,0,0,0,0,0,0,0,0,0,0,0,0,-3.6743,-3.6743,0,-3.6754,-3.6755,-3.6755,-3.6658,-3.6656,-3.6653,-3.665,-3.666,-3.6663,-3.6666,0,0,0,0,0,0,0,0,0,0,0,0,0,-3.6636,-3.6639,-3.6743,-3.6743,-3.6743,-3.6754,-3.6755,-3.6755,-3.6659,-3.6656,-3.6652,-3.6649,-3.6659,-3.6663,-3.6666,0,0,0,0,0,0,0,0,0,0,0,0,0,-3.6669,-3.664,-3.6743,-3.6697,-3.6693,-3.6754,-3.6755,-3.6755,-3.6659,-3.6655,-3.6651,-3.6648,-3.6658,-3.6662,-3.6666,-3.6772,0,0,-3.6679,-3.6681,0,0,0,0,0,0,0,0,-3.6667,-3.6673,-3.6704,-3.67,-3.6696,-3.6701,-3.672,-3.676,-3.6661,-3.6672,-3.665,-3.6646,-3.6677,-3.6679,-3.669,-3.6773,-3.6773,-3.6679,-3.6682,-3.6684,-3.6685,0,0,0,0,0,0,0,-3.6665,-3.6672,-3.6747,-3.6704,-3.6699,-3.6675,-3.6675,-3.6728,-3.6697,-3.6671,-3.6664,-3.6667,-3.6674,-3.6686,-3.669,-3.6773,-3.6679,-3.6683,-3.6685,-3.6687,-3.6941,-3.6945,0,0,0,0,0,0,-3.6669,-3.667,-3.6747,-3.6748,-3.6671,-3.668,-3.668,-3.6703,-3.6696,-3.6691,-3.667,-3.6662,-3.6681,-3.6685,-3.669,-3.6811,-3.6684,-3.6688,-3.669,-3.6937,-3.6942,-3.6946,0,0,0,0,0,0,-3.6667,-3.6677,-3.6747,-3.6707,-3.6714,-3.6686,-3.6713,-3.6706,-3.6718,-3.6695,-3.6689,-3.6688,-3.6678,-3.6684,-3.6752,-3.681,-3.6689,-3.6693,-3.6932,-3.6938,-3.6944,-3.7055,0,0,0,0,0,0,-3.6665,-3.6677,-3.6717,-3.6709,-3.6717,-3.681,-3.6716,-3.6709,-3.6725,-3.6715,-3.6711,-3.6706,-3.6676,-3.6746,-3.6756,-3.6813,-3.6696,-3.6926,-3.6935,-3.6942,-3.7046,-3.7064,-3.708,0,0,0,0,0,-3.6661,-3.6748,-3.672,-3.6729,-3.6767,-3.6813,-3.6817,-3.6781,-3.6731,-3.677,-3.6756,-3.6707,-3.6803,-3.6754,-3.6764,-3.6824,-3.6922,-3.6932,-3.6942,-3.7038,-3.7061,-3.708,0,0,0,0,0,0,-3.6762,-3.6746,-3.6714,-3.6801,-3.6809,-3.6797,-3.6845,-3.6806,-3.6828,-3.6817,-3.677,-3.677,-3.6846,-3.6842,-3.6788,-3.6925,-3.6854,-3.6866,-3.6924,-3.6945,-3.6962,-3.6959,-3.67,0,0,0,0,0,-3.6795,-3.6835,-3.6818,-3.6896,-3.6902,-3.6874,-3.6893,-3.6864,-3.687,-3.6873,-3.6863,-3.6871,-3.6902,-3.6924,-3.6952,-3.7046,-3.7043,-3.7092,-3.7109,-3.7123,-3.7133,-3.7181,-3.7202,-3.6978,-3.6978,-3.6978,0,0,-3.6863,-3.6859,-3.6886,-3.6917,-3.692,-3.6961,-3.6877,-3.6925,-3.6954,-3.688,-3.6942,-3.6937,-3.6942,-3.7023,-3.7058,-3.7022,-3.7195,-3.7136,-3.7147,-3.7149,-3.7193,-3.7214,-3.7233,-3.6984,-3.6983,-3.6982,0,0,-3.7005,-3.7008,-3.7072,-3.7077,-3.7083,-3.7063,-3.7079,-3.7073,-3.7066,-3.7129,-3.7073,-3.7108,-3.7164,-3.717,-3.718,-3.7326,-3.7281,-3.7337,-3.7425,-3.7472,-3.7489,-3.7504,-3.7554,-3.7572,-3.7348,-3.7348,-3.7348,0,-3.7088,-3.7148,-3.711,-3.7161,-3.7175,-3.7111,-3.7175,-3.7181,-3.7196,-3.7207,-3.7167,-3.7235,-3.7235,-3.7315,-3.7351,-3.7362,-3.7377,-3.7335,-3.749,-3.7505,-3.7519,-3.7565,-3.7584,-3.7355,-3.7354,-3.7353,-3.7353,0,-3.7248,-3.7291,-3.7342,-3.7358,-3.7378,-3.7436,-3.7405,-3.7431,-3.7401,-3.7386,-3.745,-3.7447,-3.7473,-3.7491,-3.7462,-3.7567,-3.7544,-3.7498,-3.7425,-3.7547,-3.759,-3.7607,-3.7364,-3.7362,-3.736,-3.7358,0,0,-3.7452,-3.7447,-3.7466,-3.7472,-3.7474,-3.7506,-3.7561,-3.7586,-3.7607,-3.7621,-3.7663,-3.7713,-3.767,-3.7682,-3.7654,-3.7696,-3.7809,-3.7644,-3.7643,-3.7672,-3.7921,-3.7953,-3.7974,-3.778,-3.7784,-3.7786,-3.792,0,-3.7588,-3.768,-3.7648,-3.7742,-3.7779,-3.772,-3.7767,-3.7774,-3.7762,-3.7791,-3.7778,-3.7812,-3.7755,-3.7761,-3.7801,-3.7787,-3.7857,-3.7777,-3.7817,-3.7819,-3.7814,-3.7997,-3.8031,-3.8156,-3.7936,-3.7939,-3.7941,0,-3.7759,-3.7779,-3.7877,-3.7872,-3.7886,-3.7929,-3.7949,-3.798,-3.7986,-3.7974,-3.7988,-3.7951,-3.8002,-3.7933,-3.8003,-3.7949,-3.7964,-3.796,-3.7964,-3.7963,-3.7885,-3.7998,-3.8196,-3.8213,-3.7968,-3.7966,-3.7964,0,-3.7894,-3.7945,-3.801,-3.8017,-3.8014,-3.8045,-3.8045,-3.8047,-3.8065,-3.8083,-3.8093,-3.8118,-3.813,-3.815,-3.812,-3.8073,-3.8193,-3.8122,-3.8183,-3.8183,-3.8207,-3.8205,-3.8407,-3.8224,-3.8224,-3.8224,-3.8223,0,-3.8047,-3.8108,-3.807,-3.8109,-3.8176,-3.8139,-3.8205,-3.8199,-3.8201,-3.8237,-3.8189,-3.8224,-3.8184,-3.8216,-3.8193,-3.8253,-3.826,-3.825,-3.8243,-3.8252,-3.8253,-3.8258,-3.8247,-3.8229,-3.8227,-3.8227,-3.8226,0,-3.8206,-3.8184,-3.8249,-3.8242,-3.8241,-3.829,-3.8283,-3.8319,-3.8304,-3.8351,-3.8359,-3.8336,-3.837,-3.8344,-3.8377,-3.8362,-3.844,-3.8423,-3.8438,-3.8431,-3.8493,-3.8486,-3.8701,-3.8727,-3.8532,-3.8534,-3.8535,0,-3.8303,-3.8349,-3.8347,-3.8368,-3.8371,-3.8406,-3.8423,-3.8389,-3.8409,-3.842,-3.8454,-3.8484,-3.8506,-3.8563,-3.8549,-3.8574,-3.8554,-3.8628,-3.8557,-3.8565,-3.855,-3.8546,-3.855,-3.8641,-3.8643,-3.8645,-3.8647,0,-3.8477,-3.8464,-3.8491,-3.8515,-3.8537,-3.8554,-3.8567,-3.8587,-3.8553,-3.8578,-3.8612,-3.863,-3.8664,-3.8694,-3.8715,-3.8714,-3.8674,-3.867,-3.8685,-3.8692,-3.8698,-3.8692,-3.8473,-3.8664,-3.8662,-3.8661,-3.866,-3.8659,-3.8605,-3.8642,-3.8646,-3.8678,-3.8685,-3.8698,-3.8731,-3.8721,-3.8749,-3.8774,-3.8754,-3.8794,-3.8799,-3.8823,-3.8827,-3.8858,-3.8827,-3.8849,-3.8854,-3.8859,-3.8866,-3.8697,-3.8862,-3.8862,-3.8861,-3.8861,-3.886,0,-3.8773,-3.8773,-3.8803,-3.8823,-3.8848,-3.8811,-3.8824,-3.8846,-3.8883,-3.8892,-3.8915,-3.8954,-3.8983,-3.8972,-3.8997,-3.9024,-3.9006,-3.9032,-3.9027,-3.9027,-3.8894,-3.8877,-3.9045,-3.9045,-3.9045,-3.9045,-3.9045,-3.9045,-3.8862,-3.8922,-3.891,-3.8973,-3.8972,-3.9012,-3.9022,-3.9034,-3.904,-3.9086,-3.911,-3.9104,-3.9104,-3.9129,-3.9154,-3.915,-3.916,-3.9191,-3.918,-3.9055,-3.9037,-3.9019,-3.9002,-3.9194,-3.9195,-3.9309,-3.931,-3.9311]},{"header":{"parameterUnit":"m.s-1","parameterCategory":1,"la1":30.2991,"la2":30.254,"lo1":-89.0895,"lo2":-89.0444,"dy":0.0017,"dx":0.0017,"nx":28,"ny":28,"refTime":"2024-05-11T09:00:00:Z","depth":0,"parameterNumber":3,"parameterNumberName":"V-component_of_WINDS"},"data":[0,0,0,0,0,0,0,0,0,0,0,0,0,0,0,0,0,0,0,0,0,0,0,0,0,0,0,0,0,0,0,0,0,0,0,0,0,0,0,0,0,0,0,0,0,0,0,0,0,0,0,0,0,0,0,0,0,0,-1.5505,-1.5507,0,-1.5673,-1.5674,-1.5676,-1.5743,-1.5743,-1.5742,-1.5742,-1.5909,-1.5914,-1.5919,0,0,0,0,0,0,0,0,0,0,0,0,0,-1.5238,-1.5243,-1.5505,-1.5507,-1.5509,-1.5672,-1.5675,-1.5677,-1.5743,-1.5742,-1.5742,-1.5742,-1.5907,-1.5913,-1.5919,0,0,0,0,0,0,0,0,0,0,0,0,0,-1.5375,-1.5244,-1.5504,-1.5562,-1.5569,-1.5672,-1.5675,-1.5677,-1.5743,-1.5742,-1.5742,-1.5741,-1.5906,-1.5913,-1.592,-1.5977,0,0,-1.5942,-1.5945,0,0,0,0,0,0,0,0,-1.5367,-1.5384,-1.5551,-1.5558,-1.5566,-1.5686,-1.5642,-1.5778,-1.5743,-1.5677,-1.5742,-1.5741,-1.5835,-1.5848,-1.5881,-1.5985,-1.5992,-1.5943,-1.5947,-1.595,-1.5952,0,0,0,0,0,0,0,-1.5357,-1.5378,-1.5571,-1.5554,-1.5563,-1.5578,-1.5597,-1.5668,-1.5757,-1.5682,-1.5688,-1.5707,-1.5839,-1.5874,-1.5885,-1.5994,-1.5942,-1.5949,-1.5953,-1.5956,-1.6154,-1.6155,0,0,0,0,0,0,-1.5339,-1.5369,-1.5566,-1.5576,-1.5463,-1.5583,-1.5604,-1.5648,-1.5757,-1.5773,-1.5707,-1.5709,-1.5862,-1.5877,-1.5891,-1.5966,-1.595,-1.5957,-1.5961,-1.6153,-1.6154,-1.6155,0,0,0,0,0,0,-1.5333,-1.5356,-1.5559,-1.5474,-1.5501,-1.5589,-1.5637,-1.5652,-1.5687,-1.5776,-1.5791,-1.5727,-1.5862,-1.5881,-1.5956,-1.5972,-1.596,-1.5967,-1.6152,-1.6153,-1.6155,-1.6114,0,0,0,0,0,0,-1.5325,-1.5353,-1.5377,-1.5474,-1.5506,-1.5621,-1.5639,-1.5656,-1.57,-1.5704,-1.5798,-1.5813,-1.5863,-1.5944,-1.5963,-1.5982,-1.5972,-1.6151,-1.6153,-1.6154,-1.6114,-1.6114,-1.6114,0,0,0,0,0,-1.5315,-1.5358,-1.5378,-1.5401,-1.5537,-1.5622,-1.564,-1.5698,-1.5701,-1.5724,-1.5781,-1.581,-1.5968,-1.5951,-1.5973,-1.5994,-1.615,-1.6152,-1.6154,-1.6115,-1.6114,-1.6114,0,0,0,0,0,0,-1.5258,-1.5372,-1.5395,-1.547,-1.5536,-1.5633,-1.5665,-1.5695,-1.5761,-1.5762,-1.583,-1.5851,-1.5919,-1.5964,-1.5944,-1.6056,-1.6061,-1.6067,-1.6024,-1.6024,-1.6023,-1.6011,-1.5978,0,0,0,0,0,-1.5255,-1.5316,-1.5411,-1.5468,-1.5501,-1.5577,-1.5616,-1.5655,-1.5726,-1.5753,-1.5816,-1.5882,-1.5947,-1.5988,-1.6052,-1.6121,-1.6143,-1.6147,-1.6146,-1.6146,-1.615,-1.619,-1.6193,-1.6162,-1.6162,-1.6162,0,0,-1.5247,-1.5317,-1.5351,-1.5459,-1.5514,-1.5575,-1.56,-1.5663,-1.5708,-1.5763,-1.5837,-1.5885,-1.5964,-1.6036,-1.607,-1.6075,-1.6164,-1.6148,-1.6147,-1.6152,-1.6193,-1.6195,-1.6198,-1.6163,-1.6163,-1.6163,0,0,-1.5265,-1.5324,-1.5379,-1.5435,-1.5519,-1.557,-1.5583,-1.5676,-1.571,-1.5786,-1.5829,-1.5883,-1.5993,-1.6047,-1.6089,-1.6128,-1.6156,-1.6147,-1.6145,-1.6183,-1.6185,-1.6188,-1.6201,-1.6206,-1.6151,-1.6151,-1.6151,0,-1.5245,-1.534,-1.5403,-1.5464,-1.551,-1.5564,-1.5619,-1.5669,-1.5769,-1.5799,-1.5804,-1.5944,-1.6,-1.6085,-1.6095,-1.6127,-1.6143,-1.6136,-1.618,-1.6183,-1.6186,-1.62,-1.6205,-1.6149,-1.615,-1.615,-1.615,0,-1.5311,-1.5376,-1.5409,-1.5507,-1.5556,-1.5614,-1.5684,-1.5727,-1.5762,-1.5811,-1.5888,-1.5958,-1.6037,-1.6061,-1.6095,-1.6151,-1.6152,-1.6167,-1.6174,-1.6187,-1.6201,-1.6207,-1.6147,-1.6148,-1.6148,-1.6149,0,0,-1.5297,-1.5429,-1.5441,-1.5486,-1.5583,-1.5634,-1.5693,-1.5773,-1.5808,-1.5875,-1.5927,-1.6019,-1.6034,-1.6082,-1.6122,-1.6156,-1.6182,-1.6167,-1.617,-1.6167,-1.6248,-1.6236,-1.6241,-1.6202,-1.6203,-1.6204,-1.6242,0,-1.5328,-1.5439,-1.5497,-1.5583,-1.5643,-1.5695,-1.5747,-1.5812,-1.586,-1.5917,-1.597,-1.6035,-1.605,-1.6079,-1.6115,-1.6171,-1.6199,-1.6169,-1.6249,-1.6251,-1.6227,-1.6248,-1.6235,-1.6267,-1.6247,-1.6248,-1.6249,0,-1.5379,-1.5447,-1.5539,-1.563,-1.5658,-1.5704,-1.5781,-1.5835,-1.591,-1.5942,-1.5996,-1.6036,-1.61,-1.6102,-1.6191,-1.6169,-1.6205,-1.6238,-1.6241,-1.625,-1.625,-1.6258,-1.6279,-1.6284,-1.6258,-1.6258,-1.6257,0,-1.5359,-1.5474,-1.5544,-1.5581,-1.5689,-1.572,-1.5766,-1.584,-1.5884,-1.5951,-1.5981,-1.6054,-1.6094,-1.6149,-1.6208,-1.6204,-1.629,-1.6297,-1.6318,-1.6317,-1.6334,-1.6332,-1.6361,-1.6357,-1.6357,-1.6357,-1.6357,0,-1.5387,-1.5441,-1.5537,-1.558,-1.5642,-1.5708,-1.5767,-1.5817,-1.5883,-1.5935,-1.5984,-1.6033,-1.6107,-1.6165,-1.6211,-1.6277,-1.6295,-1.6322,-1.6334,-1.6318,-1.6314,-1.6342,-1.6341,-1.6359,-1.6358,-1.6358,-1.6358,0,-1.5376,-1.5442,-1.5522,-1.5618,-1.5643,-1.5685,-1.5767,-1.581,-1.5861,-1.5927,-1.5946,-1.6026,-1.6096,-1.616,-1.6252,-1.6284,-1.6351,-1.6365,-1.6326,-1.6332,-1.635,-1.6347,-1.6397,-1.6407,-1.6396,-1.6397,-1.6397,0,-1.5389,-1.5432,-1.5533,-1.5573,-1.5619,-1.5682,-1.5727,-1.5794,-1.5839,-1.5927,-1.596,-1.6034,-1.6096,-1.6206,-1.6271,-1.6342,-1.6359,-1.6372,-1.637,-1.6352,-1.6359,-1.6355,-1.636,-1.637,-1.637,-1.637,-1.637,0,-1.5406,-1.5437,-1.5501,-1.5578,-1.5631,-1.5694,-1.5758,-1.5787,-1.5866,-1.5914,-1.5987,-1.6036,-1.6131,-1.6204,-1.6283,-1.6329,-1.6362,-1.637,-1.6379,-1.6363,-1.6338,-1.6351,-1.6323,-1.6368,-1.6369,-1.6369,-1.6369,-1.6369,-1.5407,-1.5448,-1.5526,-1.5596,-1.5652,-1.5711,-1.5756,-1.5814,-1.5876,-1.596,-1.5995,-1.6069,-1.6142,-1.6252,-1.6298,-1.6356,-1.6363,-1.6375,-1.6378,-1.638,-1.6377,-1.6329,-1.637,-1.6371,-1.6371,-1.6371,-1.6371,0,-1.5427,-1.5479,-1.5544,-1.5633,-1.5688,-1.5716,-1.5788,-1.5832,-1.5897,-1.5963,-1.6024,-1.6108,-1.6179,-1.625,-1.6325,-1.6357,-1.6374,-1.6375,-1.6373,-1.6383,-1.6367,-1.6352,-1.636,-1.636,-1.6359,-1.6359,-1.6359,-1.6359,-1.5443,-1.5514,-1.5554,-1.5652,-1.5705,-1.5778,-1.5817,-1.5872,-1.5925,-1.6017,-1.6076,-1.6123,-1.6191,-1.6271,-1.6337,-1.6356,-1.6381,-1.6377,-1.64,-1.6383,-1.6384,-1.6384,-1.637,-1.6382,-1.6382,-1.6411,-1.6411,-1.6411]}]]